Tracking 23762 objects as of 22-Oct-2021
HD Live streaming from Space Station
objects crossing your sky now

CZ-4B DEB

Track CZ-4B DEB now!
10-day predictions


NORAD ID: 46472
Int'l Code: 2020-066D
Perigee: 907.2 km
Apogee: 954.1 km
Inclination: 65.9 °
Period: 103.5 minutes
Semi major axis: 7301 km
RCS: Unknown
Launch date: September 21, 2020
Source: People's Republic of China (PRC)
Launch site: Jiuquan Satellite Launch Center, China (JSC)

Note: This is SATELLITE DEBRIS
aabbcc
Your satellite tracking list
Your tracking list is empty




NASA's NSSDC Master Catalog

Two Line Element Set (TLE):
1 46472U 20066D   21294.45991557  .00000001  00000-0  66826-4 0  9993
2 46472  65.9106 110.5764 0032135 198.4463 161.5446 13.91454725 54990
Source of the keplerian elements: AFSPC